Date,TemperatureHighF,TemperatureAvgF,TemperatureLowF,DewpointHighF,DewpointAvgF,DewpointLowF,HumidityHigh,HumidityAvg,HumidityLow,PressureMaxIn,PressureMinIn,WindSpeedMaxMPH,WindSpeedAvgMPH,GustSpeedMaxMPH,PrecipitationSumIn
2013-8-1,78.2,65.4,56.9,65.0,60.9,55.0,97,86,63,30.02,29.83,9,1,16,0.24
2013-8-2,76.1,68.4,62.1,64.0,59.5,51.0,99,75,45,29.83,29.77,9,3,14,0.00
2013-8-3,74.7,66.3,58.1,60.0,56.6,54.0,97,72,50,29.84,29.76,11,3,16,0.00
2013-8-4,69.1,62.8,57.0,59.0,55.1,51.0,89,76,61,29.90,29.79,8,3,18,0.03
2013-8-5,68.3,59.7,52.7,51.0,46.1,39.0,90,64,34,30.06,29.90,11,4,19,0.00
2013-8-6,76.7,62.7,47.8,58.0,51.2,46.0,92,68,39,30.14,30.06,3,1,7,0.00
2013-8-7,78.4,66.9,56.8,62.0,58.0,54.0,97,75,47,30.16,30.06,9,1,14,0.00
2013-8-8,81.7,71.7,63.3,70.0,66.2,59.0,94,83,68,30.06,29.96,11,2,18,0.00
2013-8-9,76.4,71.5,68.5,71.0,69.0,66.0,97,92,82,29.96,29.71,10,2,14,0.38
2013-8-10,74.2,68.0,59.1,67.0,56.3,45.0,95,69,37,30.01,29.77,14,4,21,0.00
2013-8-11,73.9,64.1,54.5,56.0,52.4,49.0,85,67,47,30.07,30.00,7,2,11,0.00
2013-8-12,76.5,67.7,59.6,59.0,55.6,52.0,82,66,50,30.02,29.90,9,2,13,0.00
2013-8-13,69.9,64.8,60.1,67.0,62.2,58.0,98,92,72,29.90,29.68,7,1,10,0.74
2013-8-14,66.9,59.7,52.9,64.0,53.2,49.0,97,80,61,29.95,29.65,14,4,21,0.00
2013-8-15,70.2,61.1,53.3,54.0,50.8,48.0,86,70,52,30.10,29.95,12,4,16,0.00
2013-8-16,73.9,64.5,56.9,57.0,53.2,49.0,80,67,52,30.19,30.09,8,2,13,0.00
2013-8-17,76.2,65.0,55.2,62.0,56.0,53.0,95,74,48,30.28,30.19,4,1,8,0.00
2013-8-18,73.9,65.3,56.3,63.0,58.2,54.0,97,79,57,30.27,30.07,7,1,11,0.00
2013-8-19,77.8,68.8,60.1,62.0,59.6,56.0,91,73,52,30.07,29.94,8,2,12,0.00
2013-8-20,80.7,71.5,62.4,63.0,60.8,58.0,87,70,49,30.08,29.98,8,2,12,0.00
2013-8-21,82.9,73.7,64.5,67.0,62.7,59.0,84,69,56,30.13,30.00,10,2,12,0.00
2013-8-22,83.6,74.9,66.5,67.0,63.4,60.0,95,69,46,30.00,29.79,11,3,16,0.03
2013-8-23,72.6,64.8,55.7,65.0,56.5,50.0,95,76,47,30.15,29.81,8,2,14,0.00
2013-8-24,76.1,60.8,47.7,57.0,48.6,44.0,95,68,34,30.34,30.15,4,1,6,0.00
2013-8-25,76.7,64.4,49.5,57.0,52.6,47.0,96,68,43,30.37,30.15,7,1,14,0.00
2013-8-26,74.5,68.2,60.7,67.0,62.8,56.0,92,83,66,30.16,29.86,20,5,24,0.14
2013-8-27,82.5,72.0,65.3,71.0,66.8,64.0,98,85,58,29.88,29.83,5,1,11,0.00
2013-8-28,82.9,70.8,62.6,72.0,66.8,62.0,100,88,67,29.98,29.84,9,1,11,0.79
2013-8-29,68.1,62.9,60.1,65.0,61.9,60.0,100,97,89,30.06,29.94,3,1,6,0.04
2013-8-30,81.0,70.0,59.9,67.0,63.9,60.0,100,82,59,30.02,29.79,17,2,17,0.00
2013-8-31,77.9,72.3,66.4,72.0,67.9,64.0,94,86,73,29.80,29.72,11,3,17,0.02